| time (UTC) | temp C | wind direction | speed KPH | gust KPH | rain 1hr cm | rain 24hr cm | rain mn cm | humidity % | barometer mb |
| 20260504214527 | 18 | 281 | 11.3 | 20.9 | 0.00 | 0.00 | 0.00 | 43 | 1005.4 |
| 20260504213025 | 18 | 256 | 12.9 | 24.1 | 0.00 | 0.00 | 0.00 | 43 | 1005.6 |
| 20260504211524 | 18 | 229 | 11.3 | 17.7 | 0.00 | 0.00 | 0.00 | 44 | 1005.4 |
| 20260504210034 | 18 | 259 | 9.7 | 24.1 | 0.00 | 0.00 | 0.00 | 43 | 1005.5 |
| 20260504204531 | 18 | 236 | 11.3 | 22.5 | 0.00 | 0.00 | 0.00 | 43 | 1005.5 |
| 20260504203025 | 18 | 266 | 11.3 | 29.0 | 0.00 | 0.00 | 0.00 | 47 | 1005.5 |
| 20260504201519 | 18 | 270 | 12.9 | 24.1 | 0.00 | 0.00 | 0.00 | 47 | 1005.4 |
| 20260504200018 | 18 | 240 | 16.1 | 30.6 | 0.00 | 0.00 | 0.00 | 44 | 1005.5 |
| 20260504194600 | 18 | 279 | 14.5 | 30.6 | 0.00 | 0.00 | 0.00 | 46 | 1005.7 |
| 20260504193058 | 17 | 291 | 17.7 | 32.2 | 0.00 | 0.00 | 0.00 | 46 | 1005.6 |
| 20260504191554 | 17 | 233 | 17.7 | 29.0 | 0.00 | 0.00 | 0.00 | 46 | 1005.6 |
| 20260504190053 | 17 | 258 | 11.3 | 25.7 | 0.00 | 0.00 | 0.00 | 52 | 1005.7 |
| 20260504184547 | 17 | 276 | 17.7 | 30.6 | 0.00 | 0.00 | 0.00 | 47 | 1005.9 |
| 20260504183043 | 16 | 269 | 12.9 | 20.9 | 0.00 | 0.00 | 0.00 | 53 | 1005.8 |
| 20260504181541 | 16 | 289 | 6.4 | 27.4 | 0.00 | 0.00 | 0.00 | 53 | 1006.1 |
| 20260504180040 | 15 | 264 | 14.5 | 25.7 | 0.00 | 0.00 | 0.00 | 54 | 1006.2 |
| 20260504174540 | 15 | 282 | 17.7 | 29.0 | 0.00 | 0.00 | 0.00 | 52 | 1006.1 |
| 20260504173040 | 15 | 276 | 11.3 | 20.9 | 0.00 | 0.00 | 0.00 | 57 | 1006.1 |
| 20260504171538 | 15 | 276 | 17.7 | 30.6 | 0.00 | 0.00 | 0.00 | 52 | 1006.2 |
| 20260504081549 | 3 | 355 | 0.0 | 1.6 | 0.00 | 0.00 | 0.00 | 84 | 1009.1 |
| 20260504044527 | 3 | 4 | 1.6 | 1.6 | 0.00 | 0.00 | 0.00 | 80 | 1008.8 |
| 20260504043022 | 3 | 2 | 0.0 | 1.6 | 0.00 | 0.00 | 0.00 | 79 | 1008.8 |
| 20260504041535 | 4 | 2 | 0.0 | 1.6 | 0.00 | 0.00 | 0.00 | 77 | 1008.8 |
| 20260504040021 | 3 | 2 | 0.0 | 1.6 | 0.00 | 0.00 | 0.00 | 75 | 1008.6 |
| 20260504034515 | 4 | 2 | 0.0 | 1.6 | 0.00 | 0.13 | 0.00 | 74 | 1008.6 |
| 20260504033012 | 5 | 2 | 0.0 | 1.6 | 0.00 | 0.13 | 0.00 | 74 | 1008.6 |
| 20260504031512 | 6 | 279 | 1.6 | 4.8 | 0.00 | 0.13 | 0.00 | 76 | 1008.5 |
| 20260504030010 | 6 | 279 | 4.8 | 8.0 | 0.00 | 0.13 | 0.00 | 73 | 1008.5 |
| 20260504024553 | 5 | 289 | 1.6 | 6.4 | 0.00 | 0.23 | 0.00 | 72 | 1008.6 |
| 20260504023049 | 5 | 1 | 0.0 | 3.2 | 0.00 | 0.23 | 0.00 | 68 | 1008.6 |
| 20260504021552 | 5 | 354 | 0.0 | 4.8 | 0.00 | 0.23 | 0.00 | 67 | 1008.7 |
| 20260504020053 | 6 | 354 | 0.0 | 3.2 | 0.00 | 0.23 | 0.00 | 65 | 1008.5 |
| 20260504014547 | 6 | 287 | 0.0 | 6.4 | 0.00 | 0.23 | 0.00 | 63 | 1008.4 |
| 20260504013102 | 7 | 272 | 4.8 | 11.3 | 0.00 | 0.23 | 0.00 | 64 | 1008.6 |
| 20260504011546 | 7 | 285 | 3.2 | 9.7 | 0.00 | 0.23 | 0.00 | 61 | 1008.5 |
| 20260504010045 | 7 | 41 | 3.2 | 8.0 | 0.00 | 0.23 | 0.00 | 60 | 1008.2 |
| 20260504004545 | 7 | 27 | 1.6 | 8.0 | 0.00 | 0.23 | 0.00 | 59 | 1007.9 |
| 20260504003044 | 7 | 297 | 1.6 | 11.3 | 0.00 | 0.23 | 0.00 | 58 | 1007.8 |
| 20260504001547 | 7 | 323 | 4.8 | 12.9 | 0.00 | 0.23 | 0.00 | 57 | 1007.7 |
| 20260504000044 | 8 | 300 | 4.8 | 14.5 | 0.00 | 0.23 | 0.00 | 54 | 1007.4 |
| 20260503234544 | 8 | 276 | 1.6 | 9.7 | 0.00 | 0.23 | 0.00 | 55 | 1007.4 |
| 20260503233044 | 8 | 300 | 1.6 | 8.0 | 0.00 | 0.23 | 0.00 | 54 | 1007.3 |
| 20260503231543 | 8 | 312 | 6.4 | 12.9 | 0.00 | 0.23 | 0.00 | 53 | 1007.4 |
| 20260503230043 | 8 | 237 | 1.6 | 16.1 | 0.00 | 0.23 | 0.00 | 52 | 1007.2 |
| 20260503224540 | 8 | 271 | 3.2 | 9.7 | 0.00 | 0.25 | 0.00 | 53 | 1007.2 |
| 20260503223039 | 8 | 304 | 1.6 | 9.7 | 0.00 | 0.25 | 0.00 | 54 | 1007.1 |
| 20260503221537 | 9 | 308 | 4.8 | 16.1 | 0.00 | 0.25 | 0.00 | 56 | 1006.9 |
| 20260503220037 | 9 | 307 | 6.4 | 12.9 | 0.00 | 0.25 | 0.00 | 53 | 1006.7 |